FW6176 Weather Reports


Display with metric or nautical units.
time (UTC)temp
F
wind
direction
speed
MPH
gust
MPH
rain 1hr
in
rain 24hr
in
rain mn
in
humidity
%
barometer
mb
20260503041539 49 117 0.0 1.0 0.00 0.00 0.00 64 1019.5
20260503040047 49 305 0.0 0.0 0.00 0.00 0.00 63 1019.5
20260503034549 50 306 0.0 0.0 0.00 0.00 0.00 63 1019.5
20260503033043 50 306 0.0 0.0 0.00 0.00 0.00 63 1019.6
20260503031541 50 306 0.0 0.0 0.00 0.00 0.00 61 1019.6
20260503030047 51 305 0.0 0.0 0.00 0.00 0.00 60 1019.6
20260503024536 51 305 0.0 0.0 0.00 0.00 0.00 61 1019.6
20260503023037 51 305 0.0 0.0 0.00 0.00 0.00 59 1019.6
20260503021542 52 306 0.0 0.0 0.00 0.00 0.00 57 1019.4
20260503020039 53 305 0.0 0.0 0.00 0.00 0.00 55 1019.3
20260503014534 53 305 0.0 0.0 0.00 0.00 0.00 52 1019.3
20260503013035 54 305 0.0 0.0 0.00 0.00 0.00 49 1019.1
20260503011535 56 305 0.0 0.0 0.00 0.00 0.00 46 1018.9
20260503010035 58 306 0.0 0.0 0.00 0.00 0.00 42 1018.9
20260503004532 59 316 0.0 3.0 0.00 0.00 0.00 40 1018.8
20260503003034 59 294 1.0 4.0 0.00 0.00 0.00 39 1018.8
20260503001531 60 319 0.0 5.0 0.00 0.00 0.00 38 1018.6
20260503000034 60 307 0.0 6.0 0.00 0.00 0.00 38 1018.6
20260502234531 60 250 1.0 7.0 0.00 0.00 0.00 37 1018.6
20260502233029 61 334 1.0 6.0 0.00 0.00 0.00 36 1018.6
20260502231532 61 328 2.0 11.0 0.00 0.00 0.00 36 1018.7
20260502230029 61 292 2.0 7.0 0.00 0.00 0.00 35 1018.8
20260502224528 61 325 3.0 7.0 0.00 0.00 0.00 35 1018.8
20260502223028 62 319 1.0 4.0 0.00 0.00 0.00 35 1018.6
20260502221527 61 329 2.0 8.0 0.00 0.00 0.00 36 1018.5
20260502220028 61 297 3.0 9.0 0.00 0.00 0.00 35 1018.8
20260502214530 61 299 5.0 9.0 0.00 0.00 0.00 34 1018.8
20260502213026 62 342 3.0 8.0 0.00 0.00 0.00 35 1018.8
20260502211538 61 330 2.0 6.0 0.00 0.00 0.00 38 1018.9
20260502210024 62 342 0.0 9.0 0.00 0.00 0.00 39 1019.0
20260502204523 60 241 0.0 2.0 0.00 0.00 0.00 42 1019.1
20260502203023 61 85 0.0 5.0 0.00 0.00 0.00 40 1019.5
20260502201521 60 300 1.0 7.0 0.00 0.00 0.00 44 1019.6
20260502200021 61 295 1.0 6.0 0.00 0.00 0.00 42 1019.7
20260502194520 62 28 1.0 4.0 0.00 0.00 0.00 41 1019.8
20260502193018 61 88 0.0 7.0 0.00 0.00 0.00 43 1019.8
20260502191520 61 340 2.0 9.0 0.00 0.00 0.00 44 1019.9
20260502190026 60 38 2.0 6.0 0.00 0.00 0.00 41 1019.9
20260502184515 59 206 0.0 6.0 0.00 0.00 0.00 44 1019.9
20260502183013 57 321 2.0 5.0 0.00 0.00 0.00 44 1020.0
20260502181511 56 292 2.0 7.0 0.00 0.00 0.00 44 1020.1
20260502163005 57 283 0.0 6.0 0.00 0.00 0.00 43 1020.0
20260502161502 58 330 0.0 8.0 0.00 0.00 0.00 44 1020.1
20260502151609 59 144 1.0 7.0 0.00 0.00 0.00 54 1019.8
20260502123039 50 339 0.0 3.0 0.00 0.00 0.00 76 1018.8
20260502121537 50 329 0.0 2.0 0.00 0.00 0.00 76 1018.6
20260502114533 49 296 1.0 3.0 0.00 0.00 0.00 76 1018.3
20260502113031 49 306 0.0 2.0 0.00 0.00 0.00 76 1017.9
20260502111528 49 311 0.0 1.0 0.00 0.00 0.00 76 1017.7
20260502110028 49 302 0.0 2.0 0.00 0.00 0.00 76 1017.7
20260502104538 49 314 0.0 0.0 0.00 0.00 0.00 75 1017.4
20260502103025 49 314 0.0 1.0 0.00 0.00 0.00 74 1017.3
20260502101523 49 306 0.0 1.0 0.00 0.00 0.00 74 1017.3
20260502091517 51 112 0.0 1.0 0.00 0.00 0.00 71 1017.1
20260502071502 53 109 0.0 3.0 0.00 0.00 0.00 64 1017.1
20260502064601 54 98 1.0 4.0 0.00 0.00 0.00 62 1017.2
20260502063105 54 116 0.0 3.0 0.00 0.00 0.00 62 1017.5
20260502061556 54 331 2.0 5.0 0.00 0.00 0.00 61 1017.8
20260502060108 54 96 0.0 3.0 0.00 0.00 0.00 60 1017.2
20260502054553 54 104 0.0 1.0 0.00 0.00 0.00 59 1017.3
20260502053100 54 101 0.0 1.0 0.00 0.00 0.00 58 1017.3
20260502051557 55 132 0.0 3.0 0.00 0.00 0.00 56 1017.4
20260502050053 56 93 0.0 7.0 0.00 0.00 0.00 56 1017.4
20260502044545 57 288 0.0 2.0 0.00 0.00 0.00 54 1017.4
20260502043044 57 129 0.0 1.0 0.00 0.00 0.00 53 1017.2